Location: San Angelo State Park
(31.4666°N, 100.5360°W)
Time: 05:22:48
(UTC-06:00)

Envisat - Visible Passes

Search period start: 18 November 2019 00:00
Search period end: 28 November 2019 00:00
Orbit: 764 x 766 km, 98.1° (Epoch: 17 November)

Date Brightness Start Highest point End Pass type
(mag) Time Alt. Az. Time Alt. Az. Time Alt. Az.
18 Nov 3.0 18:31:55 10° SSE 18:36:52 57° ENE 18:41:50 10° N visible
18 Nov 6.1 20:14:11 10° WSW 20:16:08 12° W 20:18:07 10° WNW visible
19 Nov 5.3 06:46:26 10° NE 06:50:52 30° E 06:55:15 10° SSE visible
19 Nov 4.8 19:34:42 10° SSW 19:39:08 30° W 19:43:36 10° NW visible
20 Nov 6.4 06:12:04 10° ENE 06:13:51 12° E 06:15:37 10° ESE visible
20 Nov 3.1 18:57:14 10° S 19:02:18 77° WSW 19:07:23 10° NNW visible
21 Nov 3.3 18:20:52 10° SE 18:25:38 43° ENE 18:30:26 10° N visible
21 Nov 5.8 20:01:40 10° SW 20:04:47 16° W 20:07:54 10° NW visible
22 Nov 5.8 06:35:33 10° NE 06:39:32 23° E 06:43:29 10° SSE visible
22 Nov 4.3 19:23:05 10° SSW 19:27:49 40° W 19:32:35 10° NNW visible
23 Nov 2.9 18:45:59 10° SSE 18:51:02 82° ENE 18:56:08 10° N visible
24 Nov 3.6 18:09:55 10° SE 18:14:26 33° ENE 18:18:58 10° N visible
24 Nov 5.4 19:49:38 10° SW 19:53:26 21° W 19:57:15 10° NW visible
25 Nov 6.0 06:24:50 10° NE 06:28:11 18° E 06:31:31 10° SE visible
25 Nov 3.8 19:11:36 10° S 19:16:31 52° W 19:21:29 10° NNW visible
26 Nov 3.0 18:34:48 10° SSE 18:39:47 63° ENE 18:44:49 10° N visible
26 Nov 6.2 20:17:58 10° WSW 20:19:07 11° W 20:20:18 10° WNW visible
27 Nov 5.1 06:49:16 10° NE 06:53:49 33° E 06:58:21 10° SSE visible
27 Nov 3.9 17:59:05 10° SE 18:03:14 26° ENE 18:07:24 10° NNE visible
27 Nov 5.0 19:37:48 10° SSW 19:42:06 28° W 19:46:24 10° NW visible
